Change the Weather History Date:

Saturday, February 25, 2012

  Actual Average Record
Temperature  
Mean Temperature 74 °F 68 °F  
Max Temperature 82 °F 78 °F 86 °F (1962)
Min Temperature 65 °F 58 °F 35 °F (1989)
Degree Days  
Heating Degree Days 0 1  
Month to date heating degree days 22 46  
Since 1 July heating degree days 119 226  
Cooling Degree Days 9 5  
Month to date cooling degree days 148 92  
Year to date cooling degree days 233 178  
Growing Degree Days 23 (Base 50)    
Moisture  
Dew Point 67 °F    
Average Humidity 81    
Maximum Humidity 100    
Minimum Humidity 61    
Precipitation  
Precipitation T in 0.08 in 2.56 in (2004)
Month to date precipitation 0.56 1.88  
Year to date precipitation 0.73 3.73  
Snow  
Snow 0.00 in - - ()
Month to date snowfall 0.0  
Since 1 July snowfall 0.0  
Snow Depth 0.00 in    
Sea Level Pressure  
Sea Level Pressure 30.09 in    
Wind  
Wind Speed 9 mph (NE)    
Max Wind Speed 21 mph    
Max Gust Speed 25 mph    
Visibility 6 miles    
Events      
T = Trace of Precipitation, MM = Missing Value Source: NWS Daily Summary

Daily Weather History Graph

Daily Weather History Graph

Search for Another Location

Airport or City:

Trip Planner

Search our weather history database for the weather conditions in past years. The results will help you decide how hot, cold, wet, or windy it might be!

Date:

Astronomy

Feb. 25, 2012 Rise Set
Actual Time 6:54 AM EST 6:26 PM EST
Civil Twilight 6:31 AM EST 6:49 PM EST
Nautical Twilight 6:04 AM EST 7:16 PM EST
Astronomical Twilight 5:37 AM EST 7:42 PM EST
Moon 8:45 AM EST (2/25) 9:54 PM EST (2/25)
Length of Visible Light 12h 17m
Length of Day
11h 31m
Waxing Crescent, 13% of the Moon is Illuminated
Feb 25
Waxing Crescent
Feb 29
First Quarter
Mar 8
Full
Mar 14
Last Quarter
Mar 22
New

Hourly Weather History & Observations

Time (EST) Temp. Heat Index Dew Point Humidity Pressure Visibility Wind Dir Wind Speed Gust Speed Precip Events Conditions
12:53 AM 71.1 °F - 70.0 °F 96% 30.04 in 5.0 mi South 8.1 mph - N/A   Clear
1:53 AM 71.1 °F - 69.1 °F 93% 30.03 in 5.0 mi Calm Calm - N/A   Clear
2:53 AM 71.1 °F - 69.1 °F 93% 30.02 in 5.0 mi Calm Calm - N/A   Clear
3:53 AM 69.1 °F - 68.0 °F 96% 30.03 in 3.0 mi Calm Calm - N/A   Mostly Cloudy
4:16 AM 68.0 °F - 68.0 °F 100% 30.03 in 2.0 mi Calm Calm - N/A   Partly Cloudy
4:34 AM 69.8 °F - 68.0 °F 94% 30.03 in 2.5 mi Calm Calm - N/A   Scattered Clouds
4:53 AM 68.0 °F - 68.0 °F 100% 30.03 in 1.8 mi Calm Calm - N/A   Scattered Clouds
4:56 AM 68.0 °F - 68.0 °F 100% 30.04 in 2.0 mi Calm Calm - N/A   Mostly Cloudy
5:05 AM 69.8 °F - 68.0 °F 94% 30.04 in 3.0 mi Calm Calm - N/A   Mostly Cloudy
5:15 AM 69.8 °F - 68.0 °F 94% 30.05 in 4.0 mi Calm Calm - N/A   Overcast
5:53 AM 70.0 °F - 69.1 °F 97% 30.06 in 4.0 mi Calm Calm - N/A   Overcast
6:23 AM 73.4 °F - 71.6 °F 94% 30.07 in 2.5 mi South 4.6 mph - N/A   Overcast
6:30 AM 73.4 °F - 71.6 °F 94% 30.07 in 3.0 mi SSW 4.6 mph - N/A   Overcast
6:53 AM 73.4 °F - 71.6 °F 94% 30.08 in 3.0 mi South 3.5 mph - N/A   Overcast
7:01 AM 73.4 °F - 71.6 °F 94% 30.08 in 2.5 mi South 4.6 mph - N/A   Overcast
7:53 AM 73.0 °F - 73.0 °F 100% 30.10 in 2.5 mi SSW 4.6 mph - N/A   Overcast
8:05 AM 73.4 °F - 73.4 °F 100% 30.11 in 3.0 mi SSW 4.6 mph - N/A   Overcast
8:24 AM 73.4 °F - 73.4 °F 100% 30.12 in 4.0 mi WSW 4.6 mph - N/A   Overcast
8:53 AM 75.0 °F - 73.0 °F 94% 30.13 in 6.0 mi West 8.1 mph - 0.00 in   Mostly Cloudy
8:58 AM 73.4 °F - 71.6 °F 94% 30.13 in 6.0 mi West 8.1 mph - N/A   Mostly Cloudy
9:53 AM 77.0 °F - 71.1 °F 82% 30.14 in 6.0 mi North 5.8 mph - N/A   Haze
10:53 AM 78.1 °F - 69.1 °F 74% 30.14 in 7.0 mi NNE 9.2 mph - N/A   Mostly Cloudy
11:00 AM 77.0 °F - 69.8 °F 78% 30.14 in 7.0 mi NNE 11.5 mph - N/A   Scattered Clouds
11:08 AM 77.0 °F - 69.8 °F 78% 30.14 in 7.0 mi NNE 11.5 mph - N/A   Mostly Cloudy
11:35 AM 78.8 °F - 69.8 °F 74% 30.13 in 7.0 mi NE 10.4 mph - N/A   Scattered Clouds
11:53 AM 80.1 °F 82.9 °F 69.1 °F 69% 30.13 in 8.0 mi ENE 8.1 mph - N/A   Scattered Clouds
12:53 PM 80.1 °F 82.7 °F 68.0 °F 67% 30.11 in 8.0 mi NNE 12.7 mph 18.4 mph N/A   Mostly Cloudy
1:53 PM 80.6 °F 83.2 °F 68.0 °F 65% 30.09 in 8.0 mi North 10.4 mph - N/A   Mostly Cloudy
2:53 PM 80.1 °F 82.3 °F 66.9 °F 64% 30.07 in 9.0 mi NNE 11.5 mph 17.3 mph N/A   Mostly Cloudy
3:12 PM 82.4 °F 84.6 °F 66.2 °F 58% 30.07 in 9.0 mi NE 9.2 mph - N/A   Scattered Clouds
3:53 PM 78.1 °F - 66.0 °F 66% 30.07 in 9.0 mi ENE 11.5 mph - N/A   Scattered Clouds
4:53 PM 73.9 °F - 59.0 °F 59% 30.08 in 10.0 mi NE 16.1 mph 21.9 mph N/A   Mostly Cloudy
5:53 PM 71.1 °F - 57.0 °F 61% 30.10 in 10.0 mi ENE 17.3 mph - N/A   Partly Cloudy
6:53 PM 69.1 °F - 55.0 °F 61% 30.13 in 10.0 mi ENE 17.3 mph - N/A   Overcast
7:53 PM 66.9 °F - 54.0 °F 63% 30.15 in 10.0 mi ENE 17.3 mph - N/A   Overcast
8:53 PM 66.0 °F - 54.0 °F 65% 30.18 in 10.0 mi NE 13.8 mph - N/A   Overcast
9:53 PM 64.9 °F - 54.0 °F 68% 30.18 in 10.0 mi ENE 17.3 mph - N/A   Scattered Clouds
10:53 PM 64.9 °F - 54.0 °F 68% 30.18 in 10.0 mi ENE 15.0 mph - N/A   Overcast
11:53 PM 64.9 °F - 54.0 °F 68% 30.18 in 10.0 mi NE 10.4 mph - N/A   Overcast